HODOYOSHI 4

Satellite information

Favourite Embed

Satellite Type and Status

PAYLOADIN ORBIT

Key statistics

Satellite HODOYOSHI 4 at a glance.

Uptime

4147

Days in orbit

Revolutions

≈ 14.9

Per day

Orbit

SSO

Sun Synchronous Orbit

Inclination

97.5

Latest

Satellite identification and parameters

Extended collection of information and parameters for HODOYOSHI 4.

Object identification

Identified? True

Debris? False

Object name: HODOYOSHI 4

International designator: 2014-033B

Object number (NORAD): 40011

Object ID (CCSDS): 40011

Country: JAPAN (JPN)

Current information (Y/N): Y

RCS size: MEDIUM

Orbital parameters

Period: 96.824 minutes

Inclination: 97.5455 deg

SMA: 6984.726 km

Apoapsis: 623.47 km

Periapsis: 589.711 km

RAAN: 130.2161 deg

Eccentricy: 0.0024166

Argument of periapsis: 5.415 deg

Mean anomaly: 354.7323 deg

Mean motion: 14.87232005 rev/day

Mean motion (dot): 0.0000178 rev/day2

B* drag term: 0.00020239797 1/REarth

Two-line elements (TLE)

Creation date: Oct. 26, 2025, 2:54 a.m.

Reference frame: TEME

Reference center: EARTH

Epoch: Oct. 25, 2025, 11:28 p.m. UTC

TLE line 0: 0 HODOYOSHI 4

TLE line 1: 1 40011U 14033B 25298.97806598 .00001780 00000-0 20240-3 0 9992

TLE line 2: 2 40011 97.5455 130.2161 0024166 5.4150 354.7323 14.87232005613987

Live tracking on map

Real-time ground track for satellite HODOYOSHI 4.

In-orbit conjunctions

There are no conjunctions computed for HODOYOSHI 4, at the moment. Check back to stay up to date, as we update our databases every day.

Go to all conjunctions

Associated space launch

HODOYOSHI 4 was lifted into orbit during the mission ‘Dnepr 1 | Multipayload, 37 satellites.’, on board a Dnepr space rocket.

The launch took place on June 19, 2014, 7:11 p.m. from 370/13.

For more information about the launch, click the button.

Launch to space Dnepr 1 | Multipayload, 37 satellites.
Dnepr 1 | Multipayload, 37 satellites.

Agency: N/A

Status: Launch Successful

Launch date: June 19, 2014, 7:11 p.m. UTC

Rocket: Dnepr

Launch pad: 370/13

Location: Dombarovskiy, Russian Federation

...

Latest news about this satellite

There are no fresh news available about this satellite. Check back as we update our databases every day.


Newsletter sign-up

Weekly statistics, charts and insights to help you stay on top of the space industry.